Terminal Aerodrome Forecast
Issued by NWS Medford, OR

Home | Current Version | Previous Version | Text Only | Print | Product List | Glossary On
Versions: 1 2 3 4 5 6 7 8 9 10 11 12 13 14 15
000
FTUS46 KMFR 271141
TAFMFR
TAF
KMFR 271141Z 2712/2812 00000KT P6SM SCT250
     FM272300 28009KT P6SM SKC
     FM280800 30002KT P6SM BKN060=

USA.gov is the U.S. government's official web portal to all federal, state and local government web resources and services.